Regional Weather Roundup
Issued by NWS Newport/Morehead, NC

Current Version | Previous Version | Text Only | Print | Product List | Glossary Off
Versions: 1 2 3 4 5 6 7 8 9 10 11 12 13 14 15 16 17 18 19 20 21 22 23 24 25 26 27 28 29 30 31 32 33 34 35 36 37 38 39 40 41 42 43 44 45 46 47 48 49 50

000
ASUS42 KMHX 030022
RWRMHX
WEATHER ROUNDUP FOR EASTERN NORTH CAROLINA
NATIONAL WEATHER SERVICE NEWPORT/MOREHEAD CITY NC
800 PM EDT TUE SEP 02 2014

NOTE: "FAIR" INDICATES FEW OR NO CLOUDS BELOW 12,000 FEET
WITH NO SIGNIFICANT WEATHER AND/OR OBSTRUCTIONS TO VISIBILITY

NCZ015>017-031-032-045>047-102-103-030100-
NORTH COAST

CITY           SKY/WX    TMP DP  RH WIND       PRES   REMARKS
EDENTON        CLEAR     85  76  73 SW13G18   29.97R
ELIZABETH CITY CLEAR     85  77  77 S10       29.95R
KITTY HAWK     CLEAR     83  78  83 SW8       29.96R
MANTEO         CLEAR     83  78  83 S15       29.98R

$$

NCZ045>047-081-094-103-104-030100-
CENTRAL COAST

CITY           SKY/WX    TMP DP  RH WIND       PRES   REMARKS
FRISCO         CLEAR     80  77  90 SW15G23   30.01R
SWANQUARTER      N/A     82 N/A N/A SW20G25   29.97R

$$

NCZ095-097-098-100-101-030100-
SOUTHERN COAST

CITY           SKY/WX    TMP DP  RH WIND       PRES   REMARKS
BEAUFORT       MOCLDY    82  77  84 SW16      30.02R
CEDAR ISLAND     N/A     81 N/A N/A S7G14     30.06S
JACKSONVILLE   PTCLDY    80  75  84 S7        30.00R
NEWPORT        NOT AVBL
PINEY ISLAND   CLEAR     82  78  88 S10       30.00R
WILMINGTON     PTCLDY    81  74  79 S10       30.00F


$$

NCZ011>013-027>030-043-044-078>080-089-090>093-098-030100-
COASTAL PLAIN

CITY           SKY/WX    TMP DP  RH WIND       PRES   REMARKS
AHOSKIE        CLEAR     80  73  80 S5        29.96R
CLINTON        CLOUDY    82  75  81 W3        30.00R
ELIZABETHTOWN  CLOUDY    82  74  76 S7        29.99S
GOLDSBORO      LGT RAIN  76  75  98 CALM      29.96S
GREENVILLE     MOCLDY    82  73  74 S8        29.99S
HAVELOCK       PTCLDY    81  75  82 S9        30.02R
KENANSVILLE    CLOUDY    82  73  75 CALM      29.99F
KINSTON        MOCLDY    84  75  74 S8        29.98F
NEW BERN       PTCLDY    82  75  79 S6        30.01R
RICHLANDS      MOCLDY    81  73  78 S7        30.00S
ROANOKE RAPIDS NOT AVBL
ROCKY MOUNT    PTCLDY    79  69  71 CALM      29.98S
WASHINGTON     CLEAR     82  75  78 S6        29.99R
WHITEVILLE     CLOUDY    82  75  81 S6        30.00S

$$

AMZ130-135-150-152-154-156-158-170-250-252-270-ANZ085-086-088-633-658-670-030100-
MARINE OBSERVATIONS

STATION/POSITION TIME  TEMP    WIND        PRES    WAVE   SWELL
                       AIR SEA DIR/SP/G            HT/PER HT/PER
                 (UTC) (F)     (DEG/KT/KT) (MB)    (FT/S) (FT/S)
CHESAPEAKE LIGHT 0000   85     210/ 15/ 15 1013.9
BUOY 44014       2300   80 78  200/ 16/ 17 1013.1    3/ 4   2/11
DUCK             0000   86 75  200/ 14/ 19 1013.6
2E DUCK          2300                        N/A     2/11   2/11
OREGON INLET     0000   83 85  200/ 20/ 22 1015.0
BUOY 44095       0000      80                N/A     3/10   2/11
20E OREGON INLET NOT AVBL
HATTERAS CG      0000   82 84  220/ 15/ 23 1016.8
DIAMOND BUOY     0000   81     210/ 17/ 21 1015.9    4/ 4   2/ 9
CAPE LOOKOUT     0000   82     210/ 14/ 17 1016.4
BEAUFORT LAB     0000   82 84  210/ 10/ 14 1016.1
30 SE NEW RIVER  0000   82 82  220/ 16/ 17 1016.7    3/ 9   2/ 9
5 SE WRIGHTSVILL 0000   79 83  230/ 16/ 19   N/A
BUOY 41002       NOT AVBL
BUOY 41004       0000   82 84  200/ 10/ 12 1016.3    3/ 8   2/ 8

$$


USA.gov is the U.S. government's official web portal to all federal, state and local government web resources and services.